Tracking 22455 objects as of 8-Mar-2021
HD Live streaming from Space Station
objects crossing your sky now

THORAD AGENA D DEB

Track THORAD AGENA D DEB now!
10-day predictions


NORAD ID: 4519
Int'l Code: 1969-082FW
Perigee: 580.1 km
Apogee: 612.8 km
Inclination: 70.0 °
Period: 96.5 minutes
Semi major axis: 6967 km
RCS: 0.0529 m2 (small)
Launch date: September 30, 1969
Source: United States (US)
Launch site: AIR FORCE WESTERN TEST RANGE (AFWTR)

Note: This is SATELLITE DEBRIS
aabbcc
Your satellite tracking list
Your tracking list is empty




NASA's NSSDC Master Catalog

Two Line Element Set (TLE):
1 04519U 69082FW  21066.31384406  .00002304  00000-0  22993-3 0  9995
2 04519  70.0467 354.1138 0023474  24.2596 335.9660 14.92769852695823
Source of the keplerian elements: AFSPC